Culdrose, United Kingdom

1:18 PM BST on August 26, 2016 (GMT +0100)
Culdrose Navy

Weather History for EGDR - November, 2011

Change the Weather History Date:

Monday, November 14, 2011

  Actual Average Record
Temperature  
Mean Temperature 55 °F -  
Max Temperature 56 °F 49 °F 57 °F (2006)
Min Temperature 53 °F 42 °F 33 °F (2001)
Degree Days  
Heating Degree Days 10    
Growing Degree Days 5 (Base 50)    
Moisture  
Dew Point 53 °F    
Average Humidity 92    
Maximum Humidity 100    
Minimum Humidity 84    
Precipitation  
Precipitation 0.00 in - - ()
Sea Level Pressure  
Sea Level Pressure 30.03 in    
Wind  
Wind Speed 17 mph ()    
Max Wind Speed 26 mph    
Max Gust Speed 39 mph    
Visibility 4.8 miles    
Events      
Averages and records for this station are not official NWS values.
T = Trace of Precipitation, MM = Missing Value Source: Averaged Metar Reports

Daily Weather History Graph

Daily Weather History Graph

Search for Another Location

Airport or City:

Trip Planner

Search our weather history database for the weather conditions in past years. The results will help you decide how hot, cold, wet, or windy it might be!

Date:

Astronomy

Nov. 14, 2011 Rise Set
Actual Time 7:31 AM GMT 4:38 PM GMT
Civil Twilight 6:56 AM GMT 5:13 PM GMT
Nautical Twilight 6:16 AM GMT 5:53 PM GMT
Astronomical Twilight 5:38 AM GMT 6:31 PM GMT
Moon 7:22 PM GMT (11/14) 10:49 AM GMT (11/14)
Length of Visible Light 10h 17m
Length of Day
9h 06m
Waning Gibbous, 88% of the Moon is Illuminated
Nov 14
Waning Gibbous
Nov 18
Last Quarter
Nov 25
New
Dec 2
First Quarter
Dec 10
Full

Hourly Weather History & Observations

Time (GMT) Temp. Dew Point Humidity Pressure Visibility Wind Dir Wind Speed Gust Speed Precip Events Conditions
12:50 AM 55.4 °F 53.6 °F 94% 30.09 in 6.2 mi SE 13.8 mph 25.3 mph N/A   Haze
1:50 AM 55.4 °F 53.6 °F 94% 30.06 in 6.2 mi ESE 12.7 mph - N/A   Haze
2:50 AM 56 °F 55 °F 94% 30.08 in 4 mi East 16.1 mph - -   Mist
2:50 AM 55.4 °F 55.4 °F 100% 30.06 in 4.3 mi East 16.1 mph - N/A   Mostly Cloudy
3:50 AM 55.4 °F 55.4 °F 100% 30.06 in 3.7 mi East 17.3 mph 29.9 mph N/A   Mostly Cloudy
4:50 AM 55.4 °F 55.4 °F 100% 30.06 in 4.3 mi ESE 26.5 mph - N/A   Mostly Cloudy
5:50 AM 56 °F 54 °F 93% 30.06 in 5 mi East 6.9 mph - -   Mist
5:50 AM 55.4 °F 55.4 °F 100% 30.04 in 5.0 mi East 6.9 mph 32.2 mph N/A   Mostly Cloudy
6:50 AM 55.4 °F 55.4 °F 100% 30.04 in 5.0 mi East 18.4 mph 33.4 mph N/A   Mostly Cloudy
7:50 AM 55.4 °F 53.6 °F 94% 30.04 in 4.3 mi East 20.7 mph 36.8 mph N/A   Haze
8:50 AM 56 °F 54 °F 91% 30.06 in 4 mi East 25.3 mph - -   Haze
8:50 AM 55.4 °F 53.6 °F 94% 30.04 in 4.3 mi East 25.3 mph - N/A   Haze
9:50 AM 55.4 °F 53.6 °F 94% 30.06 in 4.3 mi East 21.9 mph 33.4 mph N/A   Haze
10:50 AM 55.4 °F 53.6 °F 94% 30.06 in 5.0 mi East 23.0 mph 39.1 mph N/A   Haze
11:50 AM 56 °F 53 °F 84% 30.06 in 5 mi East 21.9 mph - -   Haze
11:50 AM 55.4 °F 51.8 °F 88% 30.04 in 5.0 mi East 21.9 mph 38.0 mph N/A   Haze
12:50 PM 55.4 °F 51.8 °F 88% 30.01 in 5.0 mi East 19.6 mph 38.0 mph N/A   Haze
1:50 PM 55.4 °F 53.6 °F 94% 30.01 in 5.0 mi East 26.5 mph - N/A   Haze
2:50 PM 56 °F 53 °F 84% 30.01 in 5 mi East 25.3 mph - -   Haze
2:50 PM 55.4 °F 51.8 °F 88% 30.01 in 5.0 mi East 25.3 mph - N/A   Haze
3:50 PM 55.4 °F 51.8 °F 88% 30.01 in 4.3 mi East 20.7 mph - N/A   Haze
4:50 PM 55.4 °F 51.8 °F 88% 30.01 in 4.3 mi East 19.6 mph - N/A   Haze
5:50 PM 55 °F 52 °F 87% 30.01 in 5 mi ESE 19.6 mph - -   Haze
5:50 PM 55.4 °F 51.8 °F 88% 29.98 in 5.0 mi ESE 19.6 mph 32.2 mph N/A   Haze
6:50 PM 55.4 °F 51.8 °F 88% 30.01 in 5.0 mi East 17.3 mph 33.4 mph N/A   Haze
7:50 PM 55.4 °F 51.8 °F 88% 29.98 in 4.3 mi East 18.4 mph - N/A   Haze
8:50 PM 55.4 °F 51.8 °F 88% 29.98 in 5.0 mi ESE 20.7 mph 33.4 mph N/A   Haze
9:50 PM 55.4 °F 51.8 °F 88% 29.98 in 5.0 mi East 21.9 mph - N/A   Haze
10:50 PM 55.4 °F 51.8 °F 88% 29.98 in 4.3 mi East 21.9 mph - N/A   Haze
11:50 PM 54 °F 52 °F 91% 29.99 in 5 mi East 20.7 mph - -   Haze
11:50 PM 53.6 °F 51.8 °F 94% 29.98 in 5.0 mi East 20.7 mph 33.4 mph N/A   Haze